Location: Newark
(42.9800°N, 13.1600°E)
Time: 04:32:17
(UTC+00:00)

N. Korean satellite - Visible Passes

Search period start: 20 November 2019 00:00
Search period end: 30 November 2019 00:00
Orbit: 456 x 506 km, 97.2° (Epoch: 18 November)

Date Brightness Start Highest point End Pass type
(mag) Time Alt. Az. Time Alt. Az. Time Alt. Az.
20 Nov 9.6 04:11:23 10° NE 04:14:04 19° E 04:16:42 10° SE visible
20 Nov 7.0 16:19:43 10° S 16:23:21 69° W 16:27:03 10° NNW visible
21 Nov 6.6 05:18:33 10° N 05:22:13 59° WNW 05:25:48 10° SSW visible
22 Nov 7.1 04:53:10 10° NNE 04:56:51 64° E 05:00:26 10° S visible
22 Nov 9.6 17:03:21 10° SW 17:06:06 20° W 17:08:54 10° NW visible
23 Nov 8.7 04:28:05 10° NNE 04:31:22 30° E 04:34:35 10° SSE visible
23 Nov 8.2 16:37:07 10° S 16:40:35 40° W 16:44:06 10° NNW visible
24 Nov 9.9 04:03:36 10° NE 04:05:48 15° E 04:07:58 10° SE visible
24 Nov 7.2 05:35:57 10° N 05:39:20 35° WNW 05:42:39 10° SW visible
24 Nov 6.7 16:11:29 10° SSE 16:15:09 87° WSW 16:18:53 10° NNW visible
25 Nov 6.5 05:10:21 10° N 05:14:01 75° WNW 05:17:37 10° SSW visible
25 Nov 10.1 17:21:44 10° WSW 17:23:26 13° W 17:25:08 10° WNW visible
26 Nov 7.6 04:45:02 10° NNE 04:48:36 49° E 04:52:06 10° S visible
26 Nov 9.2 16:54:45 10° SSW 16:57:50 25° W 17:00:57 10° NW visible
27 Nov 9.1 04:20:05 10° NE 04:23:06 24° E 04:26:02 10° SSE visible
27 Nov 7.6 16:28:44 10° S 16:32:19 51° W 16:35:59 10° NNW visible
28 Nov 10.1 03:56:01 10° ENE 03:57:29 12° E 03:58:55 10° ESE visible
28 Nov 6.9 05:27:38 10° N 05:31:08 43° WNW 05:34:32 10° SW visible
28 Nov 6.6 16:03:14 10° SSE 16:06:55 74° ENE 16:10:39 10° N visible
29 Nov 6.6 05:02:07 10° NNE 05:05:46 85° E 05:09:20 10° SSW visible
29 Nov 9.9 17:12:47 10° SW 17:15:06 16° W 17:17:27 10° NW visible
